Location: Kalberh�ni
(46.4610°N, 7.2453°E)
Time: 20:43:05
(UTC+00:00)

USA 229 - Pass Details

Date: 31 October 2021
Orbit: 946 x 1266 km, 63.4° (Epoch: 25 November)

Event Time Altitude Azimuth Distance (km) Brightness Sun altitude
Rises 21:29:40 0° 309° (NW) 3,837 7.2 -51.1°
Reaches altitude 10° 21:32:58 10° 325° (NW) 2,938 6.4 -51.5°
Enters shadow 21:33:55 13° 331° (NNW) 2,727 6.2 -51.6°
